Home   Weather   Neuss   Past weeks

Flag for Germany Past Weather in Neuss, North Rhine-Westphalia, Germany — Yesterday and Last 2 Weeks

Now
43 °F

Clear.


Feels Like: 37 °F
Forecast: 47 / 49 °F
Wind: 10 mph from South

Location: Duesseldorf

Current Time: Dec 10, 2016 at 5:56:34 am

Latest Report: Dec 10, 2016 at 5:20 am


Visibility: 10 mi

Pressure: 30.24 "Hg

Humidity: 87%

Dew Point: 39 °F

Location of NeussLocation

Past Weather in Neuss — Graph

°F

Neuss Temperature Yesterday

Maximum temperature yesterday: 52 °F (at 1:50 pm)
Minimum temperature yesterday: 45 °F (at 12:20 am)
Average temperature yesterday: 48 °F

High & Low Weather Summary for the Past Weeks

 TemperatureHumidityPressure
High52 °F (Dec 9, 1:50 pm)100% (Nov 26, 8:50 pm)30.60 "Hg (Nov 26, 8:50 pm)
Low18 °F (Dec 4, 7:50 am)45% (Nov 29, 2:50 pm)30.07 "Hg (Nov 26, 1:50 pm)
Average37 °F83%30.33 "Hg
* Reported Nov 25 4:20 am — Dec 10 4:20 am, Neuss, Weather by CustomWeather, © 2016

Note: Actual official high and low records may vary slightly from our data, if they occured in-between our weather recording intervals... More about our weather records

Advertising

Neuss Weather History for the Previous 24 Hours

Scroll right to see more
 ConditionsComfort  
Time TempWeatherWind HumidityBarometerVisibility
4:20 am
Sat, Dec 10
43 °FClear.13 mph87%30.24 "Hg10 mi
3:50 am43 °FClear.12 mph87%30.27 "Hg10 mi
3:20 am43 °FClear.13 mph87%30.27 "Hg10 mi
2:50 am43 °FClear.13 mph87%30.27 "Hg10 mi
2:20 am43 °FClear.8 mph87%30.30 "Hg10 mi
1:50 am43 °FClear.9 mph87%30.30 "Hg10 mi
1:20 am45 °FClear.12 mph81%30.30 "Hg10 mi
12:50 am45 °FClear.9 mph81%30.30 "Hg10 mi
12:20 am45 °FClear.12 mph87%30.30 "Hg10 mi
11:50 pm
Fri, Dec 9
45 °FClear.13 mph87%30.30 "Hg10 mi
11:20 pm45 °FClear.12 mph81%30.33 "Hg10 mi
10:50 pm46 °FClear.12 mph82%30.33 "Hg10 mi
10:20 pm46 °FClear.9 mph82%30.33 "Hg10 mi
9:50 pm46 °FClear.9 mph82%30.33 "Hg10 mi
9:20 pm46 °FClear.10 mph82%30.33 "Hg10 mi
8:50 pm46 °FClear.12 mph87%30.33 "Hg10 mi
8:20 pm48 °FClear.10 mph82%30.33 "Hg10 mi
7:50 pm48 °FClear.12 mph82%30.33 "Hg10 mi
7:20 pm48 °FClear.9 mph82%30.33 "Hg10 mi
6:50 pm50 °FPassing clouds.12 mph82%30.33 "HgN/A
6:20 pm50 °FPassing clouds.10 mph82%30.33 "HgN/A
5:50 pm50 °FPassing clouds.12 mph82%30.33 "HgN/A
5:20 pm52 °FPassing clouds.12 mph77%30.36 "HgN/A
4:50 pm52 °FPartly cloudy.12 mph77%30.36 "HgN/A
4:20 pm52 °FPartly sunny.10 mph77%30.36 "HgN/A
3:50 pm52 °FPartly sunny.7 mph77%30.36 "HgN/A
3:20 pm52 °FPartly sunny.8 mph77%30.36 "HgN/A
2:50 pm52 °FPartly sunny.9 mph77%30.36 "HgN/A
2:20 pm52 °FPartly sunny.9 mph77%30.36 "HgN/A
1:50 pm52 °FPartly sunny.8 mph77%30.36 "HgN/A
1:20 pm50 °FBroken clouds.9 mph82%30.36 "HgN/A
12:50 pm50 °FPartly sunny.9 mph82%30.39 "HgN/A
12:20 pm50 °FLight rain. Partly sunny.9 mph88%30.39 "Hg6 mi
11:50 am50 °FBroken clouds.7 mph88%30.39 "Hg5 mi
11:20 am48 °FPartly sunny.7 mph94%30.39 "Hg4 mi
10:50 am48 °FPartly sunny.8 mph94%30.39 "Hg4 mi
10:20 am48 °FPartly sunny.8 mph87%30.39 "Hg5 mi
9:50 am48 °FPartly sunny.8 mph87%30.39 "Hg6 mi
9:20 am48 °FPartly sunny.12 mph87%30.39 "HgN/A
8:50 am46 °FPartly sunny.9 mph93%30.39 "Hg6 mi
8:20 am46 °FPassing clouds.10 mph93%30.39 "Hg6 mi
7:50 am46 °FPassing clouds.9 mph87%30.36 "HgN/A
7:20 am46 °FPassing clouds.9 mph87%30.36 "HgN/A
6:50 am46 °FPassing clouds.9 mph87%30.36 "HgN/A
6:20 am46 °FPassing clouds.10 mph87%30.36 "HgN/A
5:20 am48 °FPassing clouds.13 mph82%30.36 "HgN/A
Weather by CustomWeather, © 2016

See weather overviewHow to use our weather pages